OK,64,44,734,64,2014-10-01T01:40:00,3,28072061,178548
OK,71,40,734,71,2014-10-01T01:45:00,0,28072504,178548
OK,71,40,734,71,2014-10-01T01:50:00,0,28072953,178548
OK,53,54,734,53,2014-10-01T01:55:00,1,28073400,178548
OK,53,54,734,53,2014-10-01T02:05:00,0,28074166,178548
OK,38,75,734,38,2014-10-01T02:10:00,1,28074615,178548
OK,47,61,734,47,2014-10-01T02:15:00,2,28075055,178548
OK,56,51,734,56,2014-10-01T02:20:00,0,28075504,178548
OK,56,51,734,56,2014-10-01T02:25:00,0,28075953,178548
OK,55,52,734,55,2014-10-01T02:30:00,1,28076336,178548
OK,49,58,734,49,2014-10-01T02:35:00,2,28076785,178548
OK,44,65,734,44,2014-10-01T02:40:00,1,28077234,178548
OK,55,52,734,55,2014-10-01T02:45:00,0,28077683,178548
OK,55,52,734,55,2014-10-01T02:50:00,0,28078086,178548
OK,62,46,734,62,2014-10-01T02:55:00,6,28078535,178548
OK,57,50,734,57,2014-10-01T03:00:00,2,28078980,178548
OK,63,45,734,63,2014-10-01T03:05:00,2,28079428,178548
OK,57,50,734,57,2014-10-01T03:10:00,4,28079871,178548
OK,49,58,734,49,2014-10-01T03:20:00,0,28080654,178548
OK,49,58,734,49,2014-10-01T03:25:00,0,28081103,178548
OK,49,58,734,49,2014-10-01T03:30:00,0,28081551,178548
OK,67,42,734,67,2014-10-01T03:35:00,1,28081999,178548
OK,57,50,734,57,2014-10-01T03:40:00,9,28082448,178548
OK,57,50,734,57,2014-10-01T03:45:00,9,28082881,178548
OK,56,51,734,56,2014-10-01T03:50:00,8,28083313,178548
OK,58,49,734,58,2014-10-01T03:55:00,5,28083762,178548
OK,58,49,734,58,2014-10-01T04:00:00,6,28084211,178548
OK,64,44,734,64,2014-10-01T04:05:00,7,28084652,178548
OK,55,52,734,55,2014-10-01T04:10:00,5,28085077,178548
OK,55,52,734,55,2014-10-01T04:15:00,11,28085526,178548
OK,55,52,734,55,2014-10-01T04:20:00,12,28085971,178548
OK,58,49,734,58,2014-10-01T04:25:00,12,28086420,178548
OK,57,50,734,57,2014-10-01T04:30:00,16,28086862,178548
OK,71,40,734,71,2014-10-01T04:35:00,11,28087311,178548
OK,80,35,734,80,2014-10-01T04:40:00,26,28087756,178548
OK,90,31,734,90,2014-10-01T04:45:00,23,28088205,178548
OK,94,30,734,94,2014-10-01T04:50:00,23,28088629,178548
OK,105,27,734,105,2014-10-01T04:55:00,17,28089078,178548
OK,85,33,734,85,2014-10-01T05:00:00,17,28089508,178548
OK,85,33,734,85,2014-10-01T05:05:00,19,28089957,178548
OK,80,35,734,80,2014-10-01T05:10:00,13,28090406,178548
OK,95,30,734,95,2014-10-01T05:15:00,13,28090750,178548
OK,128,22,734,128,2014-10-01T05:20:00,24,28091199,178548
OK,117,24,734,117,2014-10-01T05:25:00,35,28091648,178548
OK,108,26,734,108,2014-10-01T05:30:00,27,28092065,178548
OK,139,20,734,139,2014-10-01T05:35:00,25,28092514,178548
OK,148,19,734,148,2014-10-01T05:40:00,40,28092958,178548
OK,156,18,734,156,2014-10-01T05:45:00,47,28093399,178548
OK,145,19,734,145,2014-10-01T05:50:00,36,28093830,178548
OK,128,22,734,128,2014-10-01T05:55:00,27,28094278,178548
OK,132,21,734,132,2014-10-01T06:00:00,28,28094690,178548
OK,130,22,734,130,2014-10-01T06:05:00,29,28095135,178548
OK,133,21,734,133,2014-10-01T06:10:00,36,28095582,178548
OK,130,22,734,130,2014-10-01T06:15:00,47,28096031,178548
OK,126,22,734,126,2014-10-01T06:20:00,41,28096444,178548
OK,120,23,734,120,2014-10-01T06:25:00,30,28096893,178548
OK,102,28,734,102,2014-10-01T06:30:00,34,28097327,178548
OK,101,28,734,101,2014-10-01T06:35:00,31,28097776,178548
OK,102,28,734,102,2014-10-01T06:40:00,30,28098225,178548
OK,105,27,734,105,2014-10-01T06:45:00,35,28098662,178548
OK,108,26,734,108,2014-10-01T06:50:00,24,28099106,178548
OK,98,29,734,98,2014-10-01T07:00:00,14,28099897,178548
OK,85,33,734,85,2014-10-01T07:10:00,12,28100653,178548
OK,102,28,734,102,2014-10-01T07:15:00,14,28101093,178548
OK,98,29,734,98,2014-10-01T07:20:00,23,28101473,178548
OK,93,30,734,93,2014-10-01T07:25:00,17,28101922,178548
OK,97,29,734,97,2014-10-01T07:30:00,9,28102358,178548
OK,95,30,734,95,2014-10-01T07:35:00,9,28102807,178548
OK,79,36,734,79,2014-10-01T07:40:00,16,28103234,178548
OK,72,39,734,72,2014-10-01T07:45:00,18,28103681,178548
OK,62,46,734,62,2014-10-01T07:50:00,19,28104126,178548
OK,76,37,734,76,2014-10-01T07:55:00,13,28104571,178548
OK,44,65,734,44,2014-10-01T08:00:00,6,28105012,178548
OK,70,41,734,70,2014-10-01T08:05:00,6,28105457,178548
OK,46,62,734,46,2014-10-01T08:10:00,10,28105897,178548
OK,49,58,734,49,2014-10-01T08:15:00,9,28106346,178548
OK,87,33,734,87,2014-10-01T08:20:00,7,28106783,178548
OK,62,46,734,62,2014-10-01T08:25:00,9,28107189,178548
OK,48,59,734,48,2014-10-01T08:30:00,21,28107621,178548
OK,50,57,734,50,2014-10-01T08:35:00,14,28108070,178548
OK,52,55,734,52,2014-10-01T08:40:00,14,28108509,178548
OK,98,29,734,98,2014-10-01T08:45:00,12,28108958,178548
OK,100,28,734,100,2014-10-01T08:50:00,9,28109386,178548
OK,52,55,734,52,2014-10-01T09:00:00,7,28110178,178548
OK,51,56,734,51,2014-10-01T09:05:00,8,28110627,178548
OK,47,61,734,47,2014-10-01T09:10:00,7,28111050,178548
OK,46,62,734,46,2014-10-01T09:15:00,9,28111499,178548
OK,71,40,734,71,2014-10-01T09:20:00,4,28111928,178548
OK,44,65,734,44,2014-10-01T09:30:00,5,28112718,178548
OK,49,58,734,49,2014-10-01T09:35:00,10,28113167,178548
OK,70,41,734,70,2014-10-01T09:40:00,8,28113591,178548
OK,49,58,734,49,2014-10-01T09:45:00,14,28114040,178548
OK,49,58,734,49,2014-10-01T09:50:00,18,28114472,178548
OK,71,40,734,71,2014-10-01T10:00:00,11,28115275,178548
OK,54,53,734,54,2014-10-01T10:05:00,10,28115724,178548
OK,54,53,734,54,2014-10-01T10:10:00,8,28116136,178548
OK,59,48,734,59,2014-10-01T10:15:00,14,28116585,178548
OK,68,42,734,68,2014-10-01T10:20:00,11,28116993,178548
OK,71,40,734,71,2014-10-01T10:25:00,10,28117442,178548
OK,61,47,734,61,2014-10-01T10:30:00,18,28117867,178548
OK,47,61,734,47,2014-10-01T10:35:00,14,28118316,178548
OK,46,62,734,46,2014-10-01T10:40:00,10,28118761,178548
OK,51,56,734,51,2014-10-01T10:45:00,12,28119208,178548
OK,56,51,734,56,2014-10-01T10:50:00,14,28119652,178548
OK,62,46,734,62,2014-10-01T10:55:00,10,28120100,178548
OK,57,50,734,57,2014-10-01T11:00:00,8,28120548,178548
OK,70,41,734,70,2014-10-01T11:05:00,4,28120993,178548
OK,48,59,734,48,2014-10-01T11:10:00,9,28121380,178548
OK,46,62,734,46,2014-10-01T11:15:00,12,28121829,178548
OK,50,57,734,50,2014-10-01T11:20:00,9,28122267,178548
OK,50,57,734,50,2014-10-01T11:25:00,9,28122716,178548
OK,54,53,734,54,2014-10-01T11:30:00,8,28123157,178548
OK,47,61,734,47,2014-10-01T11:35:00,10,28123606,178548
OK,62,46,734,62,2014-10-01T11:40:00,10,28124038,178548
OK,105,27,734,105,2014-10-01T11:45:00,7,28124487,178548
OK,81,35,734,81,2014-10-01T11:50:00,6,28124889,178548
OK,93,30,734,93,2014-10-01T11:55:00,15,28125338,178548
OK,97,29,734,97,2014-10-01T12:00:00,16,28125767,178548
OK,96,29,734,96,2014-10-01T12:10:00,8,28126568,178548
OK,92,31,734,92,2014-10-01T12:15:00,12,28127017,178548
OK,89,32,734,89,2014-10-01T12:20:00,15,28127466,178548
OK,104,27,734,104,2014-10-01T12:25:00,15,28127915,178548
OK,95,30,734,95,2014-10-01T12:30:00,21,28128343,178548
OK,92,31,734,92,2014-10-01T12:35:00,11,28128792,178548
OK,93,30,734,93,2014-10-01T12:40:00,7,28129227,178548
OK,91,31,734,91,2014-10-01T12:45:00,5,28129676,178548
OK,94,30,734,94,2014-10-01T12:50:00,15,28130110,178548
OK,94,30,734,94,2014-10-01T12:55:00,18,28130559,178548
OK,94,30,734,94,2014-10-01T13:00:00,14,28130987,178548
OK,93,30,734,93,2014-10-01T13:05:00,11,28131436,178548
OK,94,30,734,94,2014-10-01T13:10:00,14,28131873,178548
OK,95,30,734,95,2014-10-01T13:15:00,15,28132322,178548
OK,92,31,734,92,2014-10-01T13:20:00,14,28132760,178548
OK,99,29,734,99,2014-10-01T13:25:00,17,28133207,178548
OK,98,29,734,98,2014-10-01T13:30:00,14,28133645,178548
OK,100,28,734,100,2014-10-01T13:35:00,7,28134094,178548
OK,105,27,734,105,2014-10-01T13:40:00,14,28134533,178548
OK,104,27,734,104,2014-10-01T13:45:00,15,28134982,178548
OK,94,30,734,94,2014-10-01T13:50:00,14,28135401,178548
OK,91,31,734,91,2014-10-01T13:55:00,16,28135850,178548
OK,103,27,734,103,2014-10-01T14:00:00,9,28136287,178548
OK,106,27,734,106,2014-10-01T14:05:00,7,28136736,178548
OK,101,28,734,101,2014-10-01T14:10:00,15,28137176,178548
OK,97,29,734,97,2014-10-01T14:15:00,11,28137625,178548
OK,95,30,734,95,2014-10-01T14:20:00,10,28138059,178548
OK,94,30,734,94,2014-10-01T14:25:00,10,28138508,178548
OK,97,29,734,97,2014-10-01T14:30:00,13,28138936,178548
OK,112,25,734,112,2014-10-01T14:35:00,13,28139385,178548
OK,96,29,734,96,2014-10-01T14:40:00,22,28139796,178548
OK,94,30,734,94,2014-10-01T14:45:00,21,28140245,178548
OK,93,30,734,93,2014-10-01T14:50:00,13,28140687,178548
OK,91,31,734,91,2014-10-01T14:55:00,9,28141135,178548
OK,93,30,734,93,2014-10-01T15:00:00,18,28141562,178548
OK,93,30,734,93,2014-10-01T15:05:00,17,28142011,178548
OK,86,33,734,86,2014-10-01T15:10:00,18,28142439,178548
OK,97,29,734,97,2014-10-01T15:15:00,8,28142888,178548
OK,93,30,734,93,2014-10-01T15:20:00,3,28143315,178548
OK,92,31,734,92,2014-10-01T15:25:00,4,28143764,178548
OK,89,32,734,89,2014-10-01T15:30:00,8,28144212,178548
OK,89,32,734,89,2014-10-01T15:35:00,10,28144661,178548
OK,87,33,734,87,2014-10-01T15:40:00,19,28145081,178548
OK,91,31,734,91,2014-10-01T15:45:00,18,28145496,178548
OK,115,24,734,115,2014-10-01T15:50:00,12,28145945,178548
OK,105,27,734,105,2014-10-01T15:55:00,9,28146394,178548
OK,78,36,734,78,2014-10-01T16:00:00,7,28146843,178548
OK,71,40,734,71,2014-10-01T16:05:00,8,28147251,178548
OK,68,42,734,68,2014-10-01T16:10:00,12,28147695,178548
OK,48,59,734,48,2014-10-01T16:15:00,12,28148144,178548
OK,50,57,734,50,2014-10-01T16:20:00,14,28148545,178548
OK,56,51,734,56,2014-10-01T16:25:00,13,28148994,178548
OK,68,42,734,68,2014-10-01T16:30:00,8,28149433,178548
OK,52,55,734,52,2014-10-01T16:35:00,4,28149882,178548
OK,50,57,734,50,2014-10-01T16:40:00,6,28150308,178548
OK,56,51,734,56,2014-10-01T16:45:00,12,28150757,178548
OK,57,50,734,57,2014-10-01T16:50:00,11,28151175,178548
OK,63,45,734,63,2014-10-01T16:55:00,7,28151624,178548
OK,62,46,734,62,2014-10-01T17:05:00,8,28152073,178548
OK,56,51,734,56,2014-10-01T17:10:00,8,28152522,178548
OK,58,49,734,58,2014-10-01T17:15:00,9,28152968,178548
OK,56,51,734,56,2014-10-01T17:20:00,7,28153415,178548
OK,51,56,734,51,2014-10-01T17:25:00,3,28153864,178548
OK,44,65,734,44,2014-10-01T17:30:00,6,28154274,178548
OK,54,53,734,54,2014-10-01T17:35:00,12,28154723,178548
OK,57,50,734,57,2014-10-01T17:40:00,11,28155165,178548
OK,75,38,734,75,2014-10-01T17:45:00,5,28155613,178548
OK,65,44,734,65,2014-10-01T17:50:00,3,28156031,178548
OK,65,44,734,65,2014-10-01T17:55:00,3,28156480,178548
OK,85,33,734,85,2014-10-01T18:00:00,1,28156928,178548
OK,54,53,734,54,2014-10-01T18:05:00,3,28157367,178548
OK,54,53,734,54,2014-10-01T18:10:00,3,28157797,178548
OK,58,49,734,58,2014-10-01T18:15:00,4,28158245,178548
OK,55,52,734,55,2014-10-01T18:20:00,3,28158689,178548
OK,43,66,734,43,2014-10-01T18:25:00,4,28159134,178548
OK,59,48,734,59,2014-10-01T18:35:00,1,28159916,178548
OK,59,48,734,59,2014-10-01T18:40:00,0,28160365,178548
OK,46,62,734,46,2014-10-01T18:45:00,1,28160814,178548
OK,69,41,734,69,2014-10-01T18:50:00,5,28161252,178548
OK,69,41,734,69,2014-10-01T18:55:00,5,28161701,178548
OK,54,53,734,54,2014-10-01T19:00:00,4,28162118,178548
OK,52,55,734,52,2014-10-01T19:05:00,9,28162567,178548
OK,52,55,734,52,2014-10-01T19:10:00,8,28162961,178548
OK,71,40,734,71,2014-10-01T19:15:00,3,28163400,178548
OK,59,48,734,59,2014-10-01T19:20:00,2,28163848,178548
OK,77,37,734,77,2014-10-01T19:25:00,4,28164297,178548
OK,70,41,734,70,2014-10-01T19:30:00,1,28164728,178548
OK,43,66,734,43,2014-10-01T19:35:00,3,28165177,178548
OK,68,42,734,68,2014-10-01T19:40:00,5,28165602,178548
OK,76,37,734,76,2014-10-01T19:45:00,3,28166050,178548
OK,64,44,734,64,2014-10-01T19:55:00,3,28166853,178548
OK,57,50,734,57,2014-10-01T20:00:00,4,28167302,178548
OK,57,50,734,57,2014-10-01T20:05:00,3,28167727,178548
OK,64,44,734,64,2014-10-01T20:10:00,3,28168164,178548
OK,72,39,734,72,2014-10-01T20:15:00,2,28168613,178548
OK,62,46,734,62,2014-10-01T20:20:00,6,28169058,178548
OK,80,35,734,80,2014-10-01T20:25:00,0,28169507,178548
OK,52,55,734,52,2014-10-01T20:30:00,2,28169955,178548
OK,53,54,734,53,2014-10-01T20:35:00,2,28170381,178548
OK,61,47,734,61,2014-10-01T20:40:00,1,28170826,178548
OK,62,46,734,62,2014-10-01T20:45:00,2,28171274,178548
OK,79,36,734,79,2014-10-01T20:50:00,2,28171711,178548
OK,67,42,734,67,2014-10-01T20:55:00,2,28172157,178548
OK,36,79,734,36,2014-10-01T21:00:00,1,28172605,178548
OK,68,42,734,68,2014-10-01T21:05:00,1,28173049,178548
OK,63,45,734,63,2014-10-01T21:10:00,2,28173497,178548
OK,59,48,734,59,2014-10-01T21:15:00,3,28173943,178548
OK,131,21,734,131,2014-10-01T21:20:00,1,28174387,178548
OK,49,58,734,49,2014-10-01T21:25:00,4,28174827,178548
OK,67,42,734,67,2014-10-01T21:35:00,1,28175658,178548
OK,67,42,734,67,2014-10-01T21:40:00,1,28176107,178548
OK,67,42,734,67,2014-10-01T21:45:00,0,28176556,178548
OK,67,42,734,67,2014-10-01T21:50:00,0,28177004,178548
OK,67,42,734,67,2014-10-01T21:55:00,0,28177800,178548
OK,67,42,734,67,2014-10-01T22:05:00,0,28178247,178548
OK,67,42,734,67,2014-10-01T22:10:00,0,28178696,178548
OK,67,42,734,67,2014-10-01T22:15:00,0,28179143,178548
OK,56,51,734,56,2014-10-01T22:20:00,1,28179577,178548
OK,56,51,734,56,2014-10-01T22:25:00,1,28180020,178548
OK,58,49,734,58,2014-10-01T22:35:00,1,28180865,178548
OK,58,49,734,58,2014-10-01T22:40:00,1,28181737,178548
OK,58,49,734,58,2014-10-01T22:45:00,0,28182184,178548
OK,54,53,734,54,2014-10-01T22:55:00,2,28182633,178548
OK,54,53,734,54,2014-10-01T23:00:00,0,28183484,178548
OK,54,53,734,54,2014-10-01T23:05:00,0,28183928,178548
OK,54,53,734,54,2014-10-01T23:10:00,0,28184377,178548
OK,54,53,734,54,2014-10-01T23:15:00,0,28184815,178548
OK,54,53,734,54,2014-10-01T23:20:00,0,28185260,178548
OK,54,53,734,54,2014-10-01T23:25:00,0,28185693,178548
OK,54,53,734,54,2014-10-01T23:30:00,0,28186083,178548
OK,54,53,734,54,2014-10-01T23:35:00,0,28186532,178548
OK,54,53,734,54,2014-10-01T23:40:00,0,28186930,178548
OK,54,53,734,54,2014-10-01T23:45:00,0,28187372,178548
OK,54,53,734,54,2014-10-01T23:50:00,0,28187821,178548
OK,54,53,734,54,2014-10-01T23:55:00,0,28188262,178548
OK,54,53,734,54,2014-10-02T00:00:00,0,28188698,178548
OK,53,54,734,53,2014-10-02T00:10:00,0,28189147,178548
OK,53,54,734,53,2014-10-02T00:15:00,0,28189596,178548
OK,53,54,734,53,2014-10-02T00:20:00,0,28190018,178548
OK,53,54,734,53,2014-10-02T00:30:00,0,28190820,178548
OK,53,54,734,53,2014-10-02T00:35:00,0,28191269,178548
OK,53,54,734,53,2014-10-02T00:45:00,0,28192024,178548
OK,53,54,734,53,2014-10-02T00:50:00,0,28192473,178548
OK,53,54,734,53,2014-10-02T00:55:00,0,28192906,178548
OK,53,54,734,53,2014-10-02T01:05:00,0,28193717,178548
OK,53,54,734,53,2014-10-02T01:10:00,0,28194166,178548
OK,53,54,734,53,2014-10-02T01:15:00,0,28194615,178548
OK,53,54,734,53,2014-10-02T01:25:00,0,28195300,178548
OK,53,54,734,53,2014-10-02T01:30:00,0,28195749,178548
OK,53,54,734,53,2014-10-02T01:35:00,0,28196198,178548
OK,53,54,734,53,2014-10-02T01:40:00,0,28196482,178548
OK,53,54,734,53,2014-10-02T01:45:00,0,28196931,178548
OK,53,54,734,53,2014-10-02T01:50:00,0,28197354,178548
OK,53,54,734,53,2014-10-02T01:55:00,0,28197803,178548
OK,53,54,734,53,2014-10-02T02:00:00,0,28198251,178548
OK,53,54,734,53,2014-10-02T02:05:00,0,28198699,178548
OK,53,54,734,53,2014-10-02T02:10:00,0,28199148,178548
OK,36,79,734,36,2014-10-02T02:15:00,0,28199520,178548
OK,36,79,734,36,2014-10-02T02:20:00,0,28199962,178548
OK,36,79,734,36,2014-10-02T02:25:00,0,28200404,178548
OK,36,79,734,36,2014-10-02T02:30:00,0,28200847,178548
OK,36,79,734,36,2014-10-02T02:35:00,0,28201296,178548
OK,36,79,734,36,2014-10-02T02:45:00,0,28201727,178548
OK,71,40,734,71,2014-10-02T02:50:00,1,28202176,178548
OK,71,40,734,71,2014-10-02T02:55:00,0,28202625,178548
OK,71,40,734,71,2014-10-02T03:00:00,0,28203067,178548
OK,71,40,734,71,2014-10-02T03:05:00,0,28203515,178548
OK,71,40,734,71,2014-10-02T03:10:00,0,28203950,178548
OK,42,68,734,42,2014-10-02T03:30:00,0,28204399,178548
OK,101,28,734,101,2014-10-02T03:35:00,1,28204848,178548
OK,101,28,734,101,2014-10-02T03:40:00,0,28205297,178548
OK,57,50,734,57,2014-10-02T03:45:00,7,28205725,178548
OK,115,24,734,115,2014-10-02T03:55:00,0,28206555,178548
OK,75,38,734,75,2014-10-02T04:00:00,4,28207004,178548
OK,81,35,734,81,2014-10-02T04:05:00,0,28207453,178548
OK,73,39,734,73,2014-10-02T04:10:00,2,28207872,178548
OK,72,39,734,72,2014-10-02T04:15:00,0,28208321,178548
OK,65,44,734,65,2014-10-02T04:20:00,6,28208748,178548
OK,73,39,734,73,2014-10-02T04:25:00,1,28209197,178548
OK,59,48,734,59,2014-10-02T04:30:00,3,28209635,178548
OK,49,58,734,49,2014-10-02T04:35:00,1,28210084,178548
OK,66,43,734,66,2014-10-02T04:40:00,15,28210507,178548
OK,64,44,734,64,2014-10-02T04:45:00,0,28210956,178548
OK,64,44,734,64,2014-10-02T04:50:00,0,28211381,178548
OK,42,68,734,42,2014-10-02T05:00:00,3,28212203,178548
OK,75,38,734,75,2014-10-02T05:05:00,10,28212652,178548
OK,76,37,734,76,2014-10-02T05:10:00,3,28213081,178548
OK,86,33,734,86,2014-10-02T05:15:00,8,28213530,178548
OK,86,33,734,86,2014-10-02T05:20:00,4,28213968,178548
OK,95,30,734,95,2014-10-02T05:25:00,17,28214417,178548
OK,97,29,734,97,2014-10-02T05:30:00,2,28214830,178548
OK,97,29,734,97,2014-10-02T05:35:00,0,28215279,178548
OK,152,18,734,152,2014-10-02T05:40:00,38,28215695,178548
OK,159,18,734,159,2014-10-02T05:45:00,11,28216144,178548
OK,166,17,734,166,2014-10-02T05:50:00,0,28216483,178548
OK,129,22,734,129,2014-10-02T05:55:00,38,28216923,178548
OK,113,25,734,113,2014-10-02T06:00:00,26,28217370,178548
OK,95,30,734,95,2014-10-02T06:05:00,19,28217819,178548
OK,87,33,734,87,2014-10-02T06:10:00,4,28218258,178548
OK,93,30,734,93,2014-10-02T06:15:00,22,28218707,178548
OK,93,30,734,93,2014-10-02T06:20:00,16,28219127,178548
OK,87,33,734,87,2014-10-02T06:30:00,26,28219949,178548
OK,88,32,734,88,2014-10-02T06:35:00,14,28220398,178548
OK,93,30,734,93,2014-10-02T06:40:00,16,28220832,178548
OK,100,28,734,100,2014-10-02T06:45:00,22,28221281,178548
OK,93,30,734,93,2014-10-02T07:00:00,22,28221948,178548
OK,93,30,734,93,2014-10-02T07:05:00,15,28222093,178548
OK,89,32,734,89,2014-10-02T07:10:00,8,28222542,178548
OK,85,33,734,85,2014-10-02T07:15:00,3,28222991,178548
OK,85,33,734,85,2014-10-02T07:20:00,0,28223422,178548
OK,80,35,734,80,2014-10-02T07:25:00,12,28223857,178548
OK,82,35,734,82,2014-10-02T07:35:00,12,28224660,178548
OK,101,28,734,101,2014-10-02T07:40:00,3,28225109,178548
OK,61,47,734,61,2014-10-02T07:50:00,13,28225880,178548
OK,64,44,734,64,2014-10-02T07:55:00,15,28226329,178548
OK,66,43,734,66,2014-10-02T08:00:00,8,28226770,178548
OK,65,44,734,65,2014-10-02T08:05:00,13,28227219,178548
OK,81,35,734,81,2014-10-02T08:10:00,4,28227634,178548
OK,70,41,734,70,2014-10-02T08:20:00,1,28228442,178548
OK,61,47,734,61,2014-10-02T08:25:00,16,28228891,178548
OK,61,47,734,61,2014-10-02T08:30:00,8,28229301,178548
OK,102,28,734,102,2014-10-02T08:40:00,0,28230100,178548
OK,102,28,734,102,2014-10-02T08:45:00,0,28230549,178548
OK,73,39,734,73,2014-10-02T08:50:00,16,28230915,178548
OK,49,58,734,49,2014-10-02T08:55:00,3,28231362,178548
OK,59,48,734,59,2014-10-02T09:00:00,10,28231787,178548
OK,46,62,734,46,2014-10-02T09:15:00,0,28232578,178548
OK,46,62,734,46,2014-10-02T09:20:00,0,28233027,178548
OK,77,37,734,77,2014-10-02T09:25:00,14,28233476,178548
OK,120,23,734,120,2014-10-02T09:30:00,7,28233900,178548
OK,56,51,734,56,2014-10-02T09:40:00,0,28234682,178548
OK,74,38,734,74,2014-10-02T09:45:00,17,28235131,178548
OK,48,59,734,48,2014-10-02T09:50:00,2,28235558,178548
OK,79,36,734,79,2014-10-02T09:55:00,12,28236007,178548
OK,91,31,734,91,2014-10-02T10:00:00,5,28236450,178548
OK,48,59,734,48,2014-10-02T10:05:00,0,28236896,178548
OK,110,26,734,110,2014-10-02T10:10:00,9,28237299,178548
OK,88,32,734,88,2014-10-02T10:15:00,14,28237747,178548
OK,84,34,734,84,2014-10-02T10:20:00,14,28238196,178548
OK,84,34,734,84,2014-10-02T10:25:00,6,28238643,178548
OK,64,44,734,64,2014-10-02T10:30:00,0,28239084,178548
OK,71,40,734,71,2014-10-02T10:35:00,12,28239533,178548
OK,104,27,734,104,2014-10-02T10:40:00,7,28239963,178548
OK,113,25,734,113,2014-10-02T10:45:00,8,28240412,178548
OK,138,20,734,138,2014-10-02T10:50:00,3,28240856,178548
OK,55,52,734,55,2014-10-02T10:55:00,10,28241305,178548
OK,57,50,734,57,2014-10-02T11:00:00,2,28241737,178548
OK,51,56,734,51,2014-10-02T11:05:00,0,28242185,178548
OK,65,44,734,65,2014-10-02T11:10:00,14,28242581,178548
OK,58,49,734,58,2014-10-02T11:15:00,10,28243030,178548
OK,86,33,734,86,2014-10-02T11:20:00,10,28243479,178548
OK,94,30,734,94,2014-10-02T11:25:00,6,28243804,178548
OK,94,30,734,94,2014-10-02T11:30:00,0,28244242,178548
OK,98,29,734,98,2014-10-02T11:35:00,11,28244671,178548
OK,108,26,734,108,2014-10-02T11:40:00,6,28245120,178548
OK,118,24,734,118,2014-10-02T11:45:00,0,28245569,178548
OK,89,32,734,89,2014-10-02T11:50:00,15,28245975,178548
OK,88,32,734,88,2014-10-02T11:55:00,9,28246424,178548
OK,74,38,734,74,2014-10-02T12:00:00,6,28246861,178548
OK,74,38,734,74,2014-10-02T12:05:00,4,28247309,178548
OK,76,37,734,76,2014-10-02T12:10:00,0,28247756,178548
OK,82,35,734,82,2014-10-02T12:15:00,8,28248186,178548
OK,76,37,734,76,2014-10-02T12:20:00,4,28248635,178548
OK,65,44,734,65,2014-10-02T12:25:00,9,28249082,178548
OK,64,44,734,64,2014-10-02T12:30:00,4,28249510,178548
OK,72,39,734,72,2014-10-02T12:35:00,8,28249953,178548
OK,78,36,734,78,2014-10-02T12:40:00,4,28250749,178548
OK,89,32,734,89,2014-10-02T12:45:00,10,28251102,178548
OK,92,31,734,92,2014-10-02T13:20:00,17,28251630,178548
OK,91,31,734,91,2014-10-02T13:30:00,13,28252096,178548
OK,85,33,734,85,2014-10-02T13:35:00,5,28252232,178548
OK,85,33,734,85,2014-10-02T13:40:00,0,28252680,178548
OK,91,31,734,91,2014-10-02T13:50:00,13,28253539,178548
OK,84,34,734,84,2014-10-02T13:55:00,16,28253987,178548
OK,90,31,734,90,2014-10-02T14:10:00,12,28254842,178548
OK,88,32,734,88,2014-10-02T14:20:00,6,28255291,178548
OK,88,32,734,88,2014-10-02T14:25:00,1,28255739,178548
OK,85,33,734,85,2014-10-02T14:30:00,5,28256168,178548
OK,104,27,734,104,2014-10-02T14:35:00,8,28256615,178548
OK,83,34,734,83,2014-10-02T14:40:00,8,28257045,178548
OK,79,36,734,79,2014-10-02T14:45:00,9,28257494,178548
OK,87,33,734,87,2014-10-02T14:50:00,20,28257935,178548
OK,88,32,734,88,2014-10-02T14:55:00,14,28258382,178548
OK,80,35,734,80,2014-10-02T15:00:00,10,28258816,178548
OK,83,34,734,83,2014-10-02T15:05:00,8,28259262,178548
OK,91,31,734,91,2014-10-02T15:10:00,12,28259710,178548
OK,89,32,734,89,2014-10-02T15:15:00,16,28260157,178548
OK,87,33,734,87,2014-10-02T15:20:00,5,28260591,178548
OK,84,34,734,84,2014-10-02T15:25:00,10,28261420,178548
OK,84,34,734,84,2014-10-02T15:35:00,4,28261843,178548
OK,92,31,734,92,2014-10-02T15:40:00,2,28262292,178548
OK,92,31,734,92,2014-10-02T15:45:00,15,28262739,178548
OK,91,31,734,91,2014-10-02T15:50:00,5,28263183,178548
OK,100,28,734,100,2014-10-02T15:55:00,0,28264018,178548
OK,97,29,734,97,2014-10-02T16:05:00,13,28264466,178548
OK,103,27,734,103,2014-10-02T16:10:00,15,28264915,178548
OK,131,21,734,131,2014-10-02T16:15:00,7,28265744,178548
OK,75,38,734,75,2014-10-02T16:25:00,10,28266189,178548
OK,107,26,734,107,2014-10-02T16:30:00,8,28266638,178548
OK,121,23,734,121,2014-10-02T16:35:00,3,28267410,178548
OK,76,37,734,76,2014-10-02T16:45:00,8,28267859,178548
OK,54,53,734,54,2014-10-02T16:50:00,0,28268308,178548
OK,115,24,734,115,2014-10-02T16:55:00,10,28268750,178548
OK,121,23,734,121,2014-10-02T17:00:00,16,28269199,178548
OK,120,23,734,120,2014-10-02T17:05:00,7,28269648,178548
OK,102,28,734,102,2014-10-02T17:10:00,0,28270083,178548
OK,102,28,734,102,2014-10-02T17:15:00,0,28270530,178548
OK,102,28,734,102,2014-10-02T17:20:00,9,28270966,178548
OK,102,28,734,102,2014-10-02T17:25:00,6,28271414,178548
OK,85,33,734,85,2014-10-02T17:30:00,7,28271844,178548
OK,63,45,734,63,2014-10-02T17:35:00,0,28272293,178548
OK,63,45,734,63,2014-10-02T17:40:00,0,28272728,178548
OK,100,28,734,100,2014-10-02T17:45:00,5,28273170,178548